Location: Unspecified
(0.0000°N, 0.0000°E)
Time: 12:14:10
(UTC+00:00)

S-56A Canister/Altair - Pass Details

Date: 07 December 2023
Orbit: 640 x 2488 km, 38.9° (Epoch: 24 February)

Event Time Altitude Azimuth Distance (km) Brightness Sun altitude
Rises 18:40:29 0° 315° (NW) 3,759 11.4 -11.3°
Reaches altitude 10° 18:42:45 10° 317° (NW) 2,997 10.8 -11.8°
Maximum altitude 18:50:18 79° 43° (NE) 1,523 8.9 -13.6°
Drops below altitude 10° 19:02:00 10° 128° (SE) 4,494 11.2 -16.2°
Sets 19:06:09 0° 129° (SE) 5,729 11.7 -17.2°
